Tracking 28790 objects as of 19-Apr-2024
HD Live streaming from Space Station
objects crossing your sky now

COSMOS 2251 DEB

Track COSMOS 2251 DEB now!
10-day predictions


NORAD ID: 36047
Int'l Code: 1993-036AXJ
Perigee: 671.3 km
Apogee: 696.1 km
Inclination: 74.1 °
Period: 98.3 minutes
Semi major axis: 7054 km
RCS: 0.0075 m2 (small)
Launch date: June 16, 1993
Source: Commonwealth of Independent States (former USSR) (CIS)
Launch site: PLESETSK MISSILE AND SPACE COMPLEX (PKMTR)

Note: This is SATELLITE DEBRIS
Your satellite tracking list
Your tracking list is empty




NASA's NSSDC Master Catalog

Two Line Element Set (TLE):
1 36047U 93036AXJ 24108.59902193  .00026021  00000-0  48146-2 0  9990
2 36047  74.0521  83.7698 0017558 307.2726  52.6841 14.65158414570024
Source of the keplerian elements: AFSPC